Weather History for Buffalo, WY

Change the Weather History Date:

Sunday, October 7, 2012

  Actual Average Record
Temperature  
Mean Temperature 42 °F 49 °F  
Max Temperature 53 °F 61 °F 81 °F (2010)
Min Temperature 30 °F 37 °F 19 °F (2000)
Degree Days  
Heating Degree Days 24 16  
Month to date heating degree days 107  
Since 1 July heating degree days 421  
Cooling Degree Days 0 0  
Month to date cooling degree days 0  
Year to date cooling degree days 491  
Moisture  
Dew Point 24 °F    
Average Humidity 52    
Maximum Humidity 76    
Minimum Humidity 32    
Precipitation  
Precipitation 0.00 in 0.04 in 0.55 in (2011)
Month to date precipitation 0.31  
Year to date precipitation 11.89  
Sea Level Pressure  
Sea Level Pressure 30.07 in    
Wind  
Wind Speed 4 mph (WSW)    
Max Wind Speed 14 mph    
Max Gust Speed -    
Visibility 10 miles    
Events      
T = Trace of Precipitation, MM = Missing Value Source: NWS Daily Summary

Daily Weather History Graph

Daily Weather History Graph

Search for Another Location

Airport:

Trip Planner

Search our weather history database for the weather conditions in past years. The results will help you decide how hot, cold, wet, or windy it might be!

Date:

Astronomy

Oct. 07, 2012 Rise Set
Actual Time 7:12 AM MDT 6:35 PM MDT
Civil Twilight 6:43 AM MDT 7:04 PM MDT
Nautical Twilight 6:09 AM MDT 7:38 PM MDT
Astronomical Twilight 5:36 AM MDT 8:12 PM MDT
Moon 11:41 PM MDT (10/7) 2:01 PM MDT (10/7)
Length of Visible Light 12h 21m
Length of Day
11h 23m
Waning Gibbous, 55% of the Moon is Illuminated
Oct 7
Waning Gibbous
Oct 8
Last Quarter
Oct 15
New
Oct 21
First Quarter
Oct 29
Full

Hourly Weather History & Observations

Time (MDT) Temp. Windchill Dew Point Humidity Pressure Visibility Wind Dir Wind Speed Gust Speed Precip Events Conditions
12:53 AM 32.0 °F - 19.0 °F 59% 30.23 in 10.0 mi Calm Calm - N/A   Overcast
1:53 AM 34.0 °F - 18.0 °F 52% 30.21 in 10.0 mi Calm Calm - N/A   Mostly Cloudy
2:53 AM 34.0 °F - 21.0 °F 59% 30.19 in 10.0 mi Calm Calm - N/A   Mostly Cloudy
3:53 AM 34.0 °F 31.0 °F 25.0 °F 70% 30.17 in 10.0 mi West 3.5 mph - 0.00 in   Overcast
4:53 AM 30.9 °F 24.3 °F 24.1 °F 76% 30.18 in 10.0 mi WSW 6.9 mph - N/A   Partly Cloudy
5:53 AM 32.0 °F 28.7 °F 24.1 °F 73% 30.17 in 10.0 mi SW 3.5 mph - N/A   Mostly Cloudy
6:53 AM 33.1 °F 27.7 °F 25.0 °F 72% 30.18 in 10.0 mi WSW 5.8 mph - N/A   Mostly Cloudy
7:53 AM 34.0 °F 26.6 °F 25.0 °F 70% 30.17 in 10.0 mi WSW 9.2 mph - N/A   Clear
8:53 AM 39.9 °F 35.8 °F 26.1 °F 58% 30.16 in 10.0 mi WSW 5.8 mph - N/A   Clear
9:53 AM 44.1 °F 40.8 °F 25.0 °F 47% 30.14 in 10.0 mi South 5.8 mph - N/A   Clear
11:53 AM 48.9 °F - 25.0 °F 39% 30.09 in 10.0 mi Variable 6.9 mph - N/A   Clear
12:53 PM 50.0 °F - 23.0 °F 35% 30.06 in 10.0 mi Variable 4.6 mph - N/A   Clear
1:53 PM 50.0 °F - 23.0 °F 35% 30.03 in 10.0 mi West 4.6 mph - N/A   Clear
2:53 PM 52.0 °F - 23.0 °F 32% 29.99 in 10.0 mi Calm Calm - N/A   Clear
3:53 PM 52.0 °F - 23.0 °F 32% 29.98 in 10.0 mi SW 3.5 mph - N/A   Clear
4:53 PM 53.1 °F - 24.1 °F 32% 29.97 in 10.0 mi SSE 6.9 mph - N/A   Clear
5:53 PM 50.0 °F - 25.0 °F 38% 29.98 in 10.0 mi SSW 3.5 mph - N/A   Clear
6:53 PM 44.1 °F 39.5 °F 28.9 °F 55% 29.99 in 10.0 mi WSW 8.1 mph - N/A   Clear
7:53 PM 42.1 °F 37.1 °F 28.9 °F 60% 29.99 in 10.0 mi WSW 8.1 mph - N/A   Clear
8:53 PM 42.1 °F 38.4 °F 28.0 °F 58% 29.97 in 10.0 mi WSW 5.8 mph - N/A   Clear
9:53 PM 42.1 °F 37.7 °F 26.1 °F 53% 29.95 in 10.0 mi WSW 6.9 mph - N/A   Clear
10:53 PM 43.0 °F 37.2 °F 23.0 °F 45% 29.94 in 10.0 mi WNW 10.4 mph - N/A   Clear
11:53 PM 48.9 °F - 23.0 °F 36% 29.90 in 10.0 mi NW 13.8 mph - N/A   Clear